Simultaneous Nadir Overpasses (SNOs) Predictions

Prediction of SNOs between AQUA and METOP-B Satellite Orbit:

Table of predicted SNOs for the next 14.0 days since TLE Epoch: 8/23/2014
Index Date (AQUA) Time (AQUA) Lat,Lon (AQUA) SZA (AQUA ) Date (METOP-B) Time (METOP-B) Lat,Lon (METOP-B) SZA (METOP-B ) Distance(km) Time Diff (sec)
1 08/24/2014 13:33:30 -73.46, 151.66 117.56 08/24/2014 13:32:20 -73.40, 150.29 117.56 43.94 70
2 08/24/2014 14:23:04 73.79, -41.41 62.81 08/24/2014 14:22:51 73.81, -41.43 62.83 2.42 13
3 08/24/2014 15:12:31 -73.87, 126.04 117.09 08/24/2014 15:13:32 -73.88, 126.05 117.10 0.39 61
4 08/27/2014 09:07:48 -73.73,-142.47 116.30 08/27/2014 09:06:35 -73.73,-142.56 116.29 2.72 73
5 08/27/2014 09:57:17 73.80, 25.00 63.79 08/27/2014 09:57:13 73.78, 24.91 63.78 3.40 4
6 08/27/2014 10:46:44 -73.88,-167.54 116.11 08/27/2014 10:47:53 -73.90,-167.48 116.10 2.62 69
7 08/30/2014 04:42:01 -73.76, -76.09 115.28 08/30/2014 04:40:56 -73.75, -76.10 115.28 1.37 65
8 08/30/2014 05:31:30 73.84, 91.37 64.82 08/30/2014 05:31:34 73.80, 91.37 64.79 3.54 4
9 08/30/2014 06:21:00 -74.07,-101.51 114.92 08/30/2014 06:22:11 -74.07,-100.66 114.96 25.75 71
10 09/02/2014 00:16:12 -73.76, -9.64 114.27 09/02/2014 00:15:16 -73.77, -9.66 114.26 0.86 56
11 09/02/2014 01:05:41 73.84, 157.81 65.83 09/02/2014 01:05:54 73.82, 157.82 65.82 2.00 13
12 09/02/2014 01:55:17 -74.38, -35.78 113.58 09/02/2014 01:56:25 -74.38, -33.47 113.65 68.97 68
13 09/04/2014 19:50:24 -73.78, 56.77 113.22 09/04/2014 19:49:37 -73.78, 56.78 113.22 0.47 47
14 09/04/2014 20:39:52 73.81,-135.67 66.83 09/04/2014 20:40:15 73.84,-135.75 66.85 3.42 23




NCC Satellite Simultaneous Nadir Overpasses (SNOs) Prediction Service
